Regional Weather Roundup
Issued by NWS

Home | Current Version | Previous Version | Text Only | Print | Product List | Glossary On
Versions: 1 2 3 4 5 6 7 8 9 10 11 12 13 14 15 16 17 18 19 20 21 22 23 24 25 26 27 28 29 30 31 32 33 34 35 36 37 38 39 40 41 42 43 44 45 46 47 48 49 50
000
ASUS43 KLSX 190210
RWRMO

WEATHER SUMMARY FOR MISSOURI
NATIONAL WEATHER SERVICE SPRINGFIELD MO
800 PM CST SAT FEB 18 2017

NOTE: "FAIR" INDICATES FEW OR NO CLOUDS BELOW 12,000 FEET WITH NO
       SIGNIFICANT WEATHER AND/OR OBSTRUCTIONS TO VISIBILITY.
       CURRENT SKY AND/OR WEATHER CONDITIONS ARE NOT AVAILABLE FOR
       CHILLICOTHE AND FARMINGTON.

MOZ001>031-035>038-043-044-053-054-190300-
...NORTHERN AND WESTERN MISSOURI...

CITY           SKY/WX    TMP DP  RH WIND       PRES   REMARKS
KANSAS CTY INT PTCLDY    56  41  57 E3        29.81S
KANSAS C DTWN  CLEAR     56  42  59 CALM      29.81R
LEE`S SUMMIT   CLEAR     63  44  50 S7        29.83R
ST JOSEPH      CLEAR     46  36  68 CALM      29.81R
CHILLICOTHE      N/A     47  36  65 CALM      29.83R
KIRKSVILLE     CLEAR     51  37  58 S3        29.83R

$$
MOZ066>068-077>081-088>096-101>105-190300-
...SOUTHWEST MISSOURI...

CITY           SKY/WX    TMP DP  RH WIND       PRES   REMARKS
SPRINGFIELD    CLEAR     49  43  80 S3        29.86S
JOPLIN         CLEAR     53  49  86 CALM      29.87R
BRANSON        MOCLDY    55  46  71 CALM      29.89R

$$
MOZ032>034-039>042-045>050-055>058-069>072-190300-
...CENTRAL MISSOURI...

CITY           SKY/WX    TMP DP  RH WIND       PRES   REMARKS
COLUMBIA       CLEAR     61  45  55 W3        29.83R
JEFFERSON CITY CLEAR     53  42  66 SE3       29.83R
ROLLA          CLEAR     53  48  83 S10       29.84R
SEDALIA        CLEAR     61  45  55 SW7       29.84R
WHITEMAN AFB   CLEAR     54  45  72 SW8       29.82R
WARRENSBURG    CLEAR     57  43  58 S7        29.83R
OSAGE BEACH    CLEAR     61  47  59 SW7       29.85S

$$
MOZ051-052-059>065-190300-
...EAST CENTRAL MISSOURI...

CITY           SKY/WX    TMP DP  RH WIND       PRES   REMARKS
ST LOUIS INTL  CLEAR     56  47  71 S6        29.85R
SPIRIT OF STL  CLEAR     53  48  83 CALM      29.85R
ST CHARLES     CLEAR     48  45  89 CALM      29.85R

$$
MOZ072>076-082>087-097>100-106>115-190300-
...SOUTH CENTRAL AND SOUTHEAST MISSOURI...

CITY           SKY/WX    TMP DP  RH WIND       PRES   REMARKS
CAPE GIRARDEAU CLOUDY    50  49  96 S5        29.90S FOG
FARMINGTON     CLOUDY    51  50  96 S7        29.89R
POPLAR BLUFF   FOG       49  49 100 CALM      29.91R VSB 1/2
WEST PLAINS    MOCLDY    52  51  97 S5        29.91R FOG

$$




USA.gov is the U.S. government's official web portal to all federal, state and local government web resources and services.